Weather History for Sexton Summit, OR

Change the Weather History Date:

Monday, November 12, 2012

  Actual Average Record
Temperature  
Mean Temperature 37 °F -  
Max Temperature 41 °F 44 °F 59 °F (1999)
Min Temperature 33 °F 35 °F 28 °F (2000)
Degree Days  
Heating Degree Days 28    
Moisture  
Dew Point 36 °F    
Average Humidity 96    
Maximum Humidity 100    
Minimum Humidity 89    
Precipitation  
Precipitation 0.21 in - - ()
Sea Level Pressure  
Sea Level Pressure 30.24 in    
Wind  
Wind Speed 15 mph (South)    
Max Wind Speed 21 mph    
Max Gust Speed 30 mph    
Visibility 4 miles    
Events Fog , Rain    
Averages and records for this station are not official NWS values.
T = Trace of Precipitation, MM = Missing Value Source: NWS Daily Summary

Daily Weather History Graph

Daily Weather History Graph

Search for Another Location

Airport:

Trip Planner

Search our weather history database for the weather conditions in past years. The results will help you decide how hot, cold, wet, or windy it might be!

Date:

Astronomy

Nov. 12, 2012 Rise Set
Actual Time 7:01 AM PST 4:53 PM PST
Civil Twilight 6:31 AM PST 5:23 PM PST
Nautical Twilight 5:57 AM PST 5:57 PM PST
Astronomical Twilight 5:24 AM PST 6:30 PM PST
Moon 5:33 AM PST (11/12) 4:02 PM PST (11/12)
Length of Visible Light 10h 51m
Length of Day
9h 51m
Waning Crescent, 2% of the Moon is Illuminated
Nov 12
Waning Crescent
Nov 13
New
Nov 20
First Quarter
Nov 28
Full
Dec 6
Last Quarter

Hourly Weather History & Observations

Time (PST) Temp. Windchill Dew Point Humidity Pressure Visibility Wind Dir Wind Speed Gust Speed Precip Events Conditions
12:56 AM 35.1 °F 26.4 °F 33.1 °F 92% 30.29 in 10.0 mi South 12.7 mph 20.7 mph N/A   Overcast
1:36 AM 35.6 °F 26.2 °F 33.8 °F 93% 30.22 in 7.0 mi South 15.0 mph 23.0 mph 0.01 in Rain Light Rain
1:56 AM 35.1 °F 25.5 °F 33.1 °F 92% 30.29 in 8.0 mi South 15.0 mph 21.9 mph 0.02 in Rain Rain
2:08 AM 33.8 °F 23.9 °F 33.8 °F 100% 30.22 in 4.0 mi South 15.0 mph 23.0 mph 0.00 in Rain Rain
2:11 AM 33.8 °F 23.9 °F 33.8 °F 100% 30.22 in 2.5 mi South 15.0 mph 24.2 mph 0.00 in Rain Rain
2:17 AM 33.8 °F 23.9 °F 33.8 °F 100% 30.22 in 1.2 mi South 15.0 mph 24.2 mph 0.01 in Rain Rain
2:24 AM 33.8 °F 23.9 °F 33.8 °F 100% 30.22 in 1.0 mi SSE 15.0 mph - 0.01 in Rain Rain
2:39 AM 33.8 °F 23.5 °F 33.8 °F 100% 30.22 in 0.8 mi SSE 16.1 mph - 0.02 in Rain Rain
2:53 AM 33.8 °F 23.9 °F 33.8 °F 100% 30.21 in 0.2 mi SSE 15.0 mph - 0.03 in Fog , Rain Rain
2:56 AM 34.0 °F 24.2 °F 33.1 °F 96% 30.29 in 0.5 mi SSE 15.0 mph - 0.03 in Fog , Rain Rain
3:09 AM 33.8 °F 23.5 °F 33.8 °F 100% 30.21 in 0.5 mi South 16.1 mph 23.0 mph 0.00 in Fog , Rain Rain
3:29 AM 33.8 °F 22.8 °F 33.8 °F 100% 30.20 in 1.0 mi SSE 18.4 mph - 0.00 in Rain Rain
3:32 AM 33.8 °F 23.2 °F 33.8 °F 100% 30.20 in 4.0 mi South 17.3 mph - 0.00 in Rain Rain
3:56 AM 34.0 °F 24.2 °F 32.0 °F 92% 30.27 in 3.0 mi South 15.0 mph - 0.00 in Rain Rain
4:56 AM 34.0 °F 24.2 °F 33.1 °F 96% 30.28 in 10.0 mi South 15.0 mph 23.0 mph N/A   Overcast
5:10 AM 33.8 °F 23.9 °F 33.8 °F 100% 30.21 in 7.0 mi South 15.0 mph 19.6 mph N/A   Overcast
5:39 AM 35.6 °F 24.8 °F 33.8 °F 93% 30.20 in 4.0 mi South 19.6 mph 27.6 mph N/A   Overcast
5:42 AM 35.6 °F 24.5 °F 33.8 °F 93% 30.20 in 1.5 mi South 20.7 mph 27.6 mph N/A   Overcast
5:46 AM 35.6 °F 25.5 °F 33.8 °F 93% 30.20 in 0.8 mi South 17.3 mph 28.8 mph N/A   Overcast
5:56 AM 36.0 °F 25.3 °F 35.1 °F 97% 30.26 in 0.5 mi South 19.6 mph 29.9 mph N/A Fog Fog
6:03 AM 35.6 °F 25.2 °F 35.6 °F 100% 30.20 in 0.2 mi South 18.4 mph 28.8 mph N/A Fog Fog
6:19 AM 35.6 °F 24.8 °F 35.6 °F 100% 30.20 in 0.2 mi South 19.6 mph 28.8 mph N/A Fog , Rain Light Rain
6:32 AM 35.6 °F 25.5 °F 35.6 °F 100% 30.20 in 0.5 mi South 17.3 mph 25.3 mph N/A Fog , Rain Light Rain
6:39 AM 35.6 °F 25.2 °F 33.8 °F 93% 30.20 in 1.5 mi South 18.4 mph 25.3 mph N/A   Overcast
6:42 AM 35.6 °F 25.5 °F 33.8 °F 93% 30.20 in 3.0 mi South 17.3 mph 25.3 mph N/A   Overcast
6:51 AM 35.6 °F 25.9 °F 33.8 °F 93% 30.20 in 10.0 mi South 16.1 mph 24.2 mph N/A   Overcast
6:56 AM 35.1 °F 24.8 °F 34.0 °F 96% 30.27 in 10.0 mi South 17.3 mph 24.2 mph N/A   Overcast
7:40 AM 35.6 °F 26.6 °F 33.8 °F 93% 30.21 in 10.0 mi South 13.8 mph 23.0 mph N/A Rain Light Rain
7:56 AM 35.1 °F 25.2 °F 33.1 °F 92% 30.27 in 10.0 mi South 16.1 mph - N/A   Overcast
8:56 AM 36.0 °F 27.1 °F 34.0 °F 93% 30.28 in 8.0 mi South 13.8 mph - N/A   Overcast
9:06 AM 35.6 °F 26.6 °F 33.8 °F 93% 30.22 in 10.0 mi South 13.8 mph - N/A   Overcast
9:13 AM 35.6 °F 27.1 °F 35.6 °F 100% 30.22 in 10.0 mi South 12.7 mph - N/A   Overcast
9:56 AM 37.0 °F 28.1 °F 34.0 °F 89% 30.28 in 10.0 mi SSE 15.0 mph 21.9 mph N/A Rain Light Rain
10:56 AM 39.0 °F 30.3 °F 36.0 °F 89% 30.28 in 10.0 mi SSE 16.1 mph - N/A   Overcast
11:19 AM 39.2 °F 30.8 °F 37.4 °F 93% 30.23 in 8.0 mi SSE 15.0 mph - N/A Rain Light Rain
11:56 AM 39.0 °F 31.0 °F 37.0 °F 93% 30.26 in 8.0 mi SSE 13.8 mph - N/A Rain Light Rain
12:21 PM 39.2 °F 31.2 °F 37.4 °F 93% 30.21 in 1.8 mi SSE 13.8 mph 19.6 mph 0.01 in Rain Light Rain
12:24 PM 39.2 °F 31.6 °F 37.4 °F 93% 30.21 in 0.8 mi SSE 12.7 mph 20.7 mph 0.01 in Rain Light Rain
12:30 PM 39.2 °F 31.6 °F 37.4 °F 93% 30.22 in 0.2 mi SSE 12.7 mph 20.7 mph 0.02 in Fog , Rain Light Rain
12:47 PM 37.4 °F 28.5 °F 37.4 °F 100% 30.21 in 0.2 mi SSE 15.0 mph - 0.02 in Fog , Rain Light Rain
12:56 PM 39.0 °F 29.9 °F 39.0 °F 100% 30.25 in 0.2 mi SSE 17.3 mph 26.5 mph 0.02 in Fog , Rain Light Rain
1:56 PM 39.9 °F 32.9 °F 39.0 °F 97% 30.25 in 0.2 mi South 11.5 mph 17.3 mph 0.02 in Fog , Rain Rain
2:56 PM 41.0 °F 35.8 °F 39.9 °F 96% 30.25 in 0.2 mi South 8.1 mph - 0.03 in Fog , Rain Rain
3:56 PM 41.0 °F 34.7 °F 39.9 °F 96% 30.25 in 0.2 mi South 10.4 mph - 0.03 in Fog , Rain Rain
4:56 PM 41.0 °F 35.8 °F 39.9 °F 96% 30.25 in 0.2 mi South 8.1 mph - 0.01 in Fog , Rain Rain
5:56 PM 41.0 °F 36.4 °F 39.9 °F 96% 30.25 in 0.2 mi SE 6.9 mph - 0.01 in Fog , Rain Rain
6:56 PM 41.0 °F 35.8 °F 39.9 °F 96% 30.26 in 0.2 mi SE 8.1 mph - 0.01 in Fog , Rain Rain
7:56 PM 41.0 °F 35.2 °F 39.9 °F 96% 30.27 in 0.2 mi SE 9.2 mph - 0.01 in Fog , Rain Rain
8:56 PM 41.0 °F 35.2 °F 39.9 °F 96% 30.27 in 0.2 mi SSE 9.2 mph - 0.01 in Fog , Rain Rain
9:56 PM 39.9 °F 33.9 °F 39.9 °F 100% 30.27 in 0.2 mi SSE 9.2 mph - 0.01 in Fog , Rain Rain
10:56 PM 41.0 °F 35.2 °F 39.9 °F 96% 30.25 in 0.2 mi SSE 9.2 mph - 0.00 in Fog , Rain Rain
11:56 PM 41.0 °F 34.7 °F 39.9 °F 96% 30.25 in 0.2 mi SSE 10.4 mph - N/A Fog , Rain Rain